Location: Casa Rossa
(45.2389°N, 12.2056°E)
Time: 04:29:51
(UTC+00:00)

DELTA 2 DEB (DPAF) - Pass Details

Date: 14 July 2020
Orbit: 641 x 647 km, 98.3° (Epoch: 11 August)

Event Time Altitude Azimuth Distance (km) Brightness Sun altitude
Exits shadow 00:46:49 48° 186° (S) 849 4.3 -20.1°
Maximum altitude 00:48:00 74° 256° (WSW) 676 4.0 -20.0°
Drops below altitude 10° 00:52:29 10° 343° (NNW) 2,052 7.4 -19.7°
Sets 00:54:42 0° 345° (NNW) 2,966 8.4 -19.5°
